| time (UTC) | temp C | wind direction | speed KPH | gust KPH | rain 1hr cm | rain 24hr cm | rain mn cm | humidity % | barometer mb |
| 20260504042215 | 20 | 355 | 0.0 | 3.2 | 0.00 | 0.00 | 0.00 | 36 | 1008.3 |
| 20260504042210 | 20 | 355 | 0.0 | 3.2 | 0.00 | 0.00 | 0.00 | 36 | 1008.1 |
| 20260504041957 | 20 | 355 | 0.0 | 3.2 | 0.00 | 0.00 | 0.00 | 36 | 1008.1 |
| 20260504041201 | 20 | 355 | 0.0 | 4.8 | 0.00 | 0.00 | 0.00 | 35 | 1008.1 |
| 20260504040708 | 20 | 355 | 1.6 | 6.4 | 0.00 | 0.00 | 0.00 | 35 | 1008.0 |
| 20260504040207 | 20 | 351 | 3.2 | 8.0 | 0.00 | 0.00 | 0.00 | 35 | 1008.0 |
| 20260504035703 | 21 | 355 | 3.2 | 8.0 | 0.00 | 0.00 | 0.00 | 35 | 1008.0 |
| 20260504035204 | 21 | 355 | 3.2 | 8.0 | 0.00 | 0.00 | 0.00 | 34 | 1007.9 |
| 20260504034703 | 21 | 355 | 3.2 | 12.9 | 0.00 | 0.00 | 0.00 | 34 | 1007.8 |
| 20260504034200 | 21 | 336 | 3.2 | 12.9 | 0.00 | 0.00 | 0.00 | 33 | 1007.8 |
| 20260504033933 | 21 | 355 | 3.2 | 9.7 | 0.00 | 0.00 | 0.00 | 33 | 1007.8 |
| 20260504033432 | 21 | 355 | 3.2 | 8.0 | 0.00 | 0.00 | 0.00 | 33 | 1007.8 |
| 20260504032659 | 22 | 16 | 3.2 | 12.9 | 0.00 | 0.00 | 0.00 | 32 | 1007.7 |
| 20260504032159 | 22 | 348 | 4.8 | 12.9 | 0.00 | 0.00 | 0.00 | 32 | 1007.5 |
| 20260504031932 | 22 | 0 | 6.4 | 16.1 | 0.00 | 0.00 | 0.00 | 31 | 1007.5 |
| 20260504031204 | 22 | 355 | 4.8 | 16.1 | 0.00 | 0.00 | 0.00 | 31 | 1007.5 |
| 20260504030936 | 23 | 355 | 4.8 | 9.7 | 0.00 | 0.00 | 0.00 | 30 | 1007.4 |
| 20260504030428 | 23 | 355 | 4.8 | 14.5 | 0.00 | 0.00 | 0.00 | 30 | 1007.4 |
| 20260504025721 | 23 | 355 | 6.4 | 16.1 | 0.00 | 0.00 | 0.00 | 29 | 1007.4 |
| 20260504024655 | 24 | 5 | 8.0 | 20.9 | 0.00 | 0.00 | 0.00 | 29 | 1007.3 |
| 20260504024420 | 24 | 345 | 8.0 | 17.7 | 0.00 | 0.00 | 0.00 | 28 | 1007.2 |
| 20260504023947 | 24 | 11 | 8.0 | 20.9 | 0.00 | 0.00 | 0.00 | 28 | 1007.1 |
| 20260504023156 | 25 | 0 | 9.7 | 24.1 | 0.00 | 0.00 | 0.00 | 27 | 1007.2 |
| 20260504022649 | 25 | 355 | 9.7 | 24.1 | 0.00 | 0.00 | 0.00 | 27 | 1007.3 |
| 20260504022142 | 25 | 15 | 8.0 | 22.5 | 0.00 | 0.00 | 0.00 | 27 | 1007.1 |
| 20260504021935 | 26 | 343 | 8.0 | 27.4 | 0.00 | 0.00 | 0.00 | 27 | 1007.2 |
| 20260504021918 | 25 | 0 | 6.4 | 16.1 | 0.00 | 0.00 | 0.00 | 27 | 1007.2 |
| 20260504020624 | 26 | 50 | 8.0 | 27.4 | 0.00 | 0.00 | 0.00 | 26 | 1007.1 |
| 20260504020120 | 26 | 65 | 8.0 | 19.3 | 0.00 | 0.00 | 0.00 | 26 | 1007.1 |
| 20260504015620 | 26 | 19 | 9.7 | 25.7 | 0.00 | 0.00 | 0.00 | 26 | 1007.2 |
| 20260504015117 | 26 | 12 | 12.9 | 25.7 | 0.00 | 0.00 | 0.00 | 26 | 1007.3 |
| 20260504014616 | 26 | 342 | 12.9 | 22.5 | 0.00 | 0.00 | 0.00 | 26 | 1007.1 |
| 20260504014117 | 26 | 5 | 11.3 | 22.5 | 0.00 | 0.00 | 0.00 | 25 | 1007.1 |
| 20260504013614 | 26 | 343 | 8.0 | 19.3 | 0.00 | 0.00 | 0.00 | 25 | 1007.1 |
| 20260504013114 | 27 | 355 | 8.0 | 17.7 | 0.00 | 0.00 | 0.00 | 25 | 1007.2 |
| 20260504012615 | 26 | 15 | 9.7 | 22.5 | 0.00 | 0.00 | 0.00 | 26 | 1007.3 |
| 20260504012114 | 27 | 355 | 9.7 | 22.5 | 0.00 | 0.00 | 0.00 | 25 | 1007.2 |
| 20260504011611 | 27 | 345 | 8.0 | 20.9 | 0.00 | 0.00 | 0.00 | 25 | 1007.4 |
| 20260504011111 | 27 | 55 | 9.7 | 22.5 | 0.00 | 0.00 | 0.00 | 25 | 1007.4 |
| 20260504010619 | 27 | 35 | 9.7 | 22.5 | 0.00 | 0.00 | 0.00 | 25 | 1007.3 |
| 20260504010110 | 27 | 338 | 8.0 | 20.9 | 0.00 | 0.00 | 0.00 | 26 | 1007.3 |
| 20260504005608 | 27 | 24 | 9.7 | 22.5 | 0.00 | 0.00 | 0.00 | 25 | 1007.3 |
| 20260504005109 | 27 | 35 | 12.9 | 22.5 | 0.00 | 0.00 | 0.00 | 25 | 1007.3 |
| 20260504004630 | 28 | 322 | 8.0 | 22.5 | 0.00 | 0.03 | 0.00 | 24 | 1007.2 |
| 20260504004625 | 27 | 355 | 9.7 | 22.5 | 0.00 | 0.00 | 0.00 | 25 | 1007.2 |
| 20260504003608 | 28 | 28 | 8.0 | 22.5 | 0.00 | 0.03 | 0.00 | 25 | 1007.2 |
| 20260504003414 | 28 | 20 | 6.4 | 17.7 | 0.00 | 0.03 | 0.00 | 23 | 1007.3 |
| 20260504003409 | 28 | 64 | 6.4 | 19.3 | 0.00 | 0.03 | 0.00 | 24 | 1007.4 |
| 20260504003406 | 28 | 345 | 8.0 | 17.7 | 0.00 | 0.03 | 0.00 | 24 | 1007.3 |
| 20260504001544 | 28 | 61 | 6.4 | 19.3 | 0.00 | 0.03 | 0.00 | 23 | 1007.3 |
| 20260504001038 | 28 | 338 | 6.4 | 16.1 | 0.00 | 0.03 | 0.00 | 22 | 1007.2 |
| 20260504000531 | 27 | 36 | 8.0 | 17.7 | 0.00 | 0.03 | 0.00 | 23 | 1007.4 |
| 20260504000027 | 27 | 336 | 8.0 | 17.7 | 0.00 | 0.03 | 0.00 | 23 | 1007.4 |
| 20260503235520 | 28 | 5 | 6.4 | 17.7 | 0.00 | 0.03 | 0.00 | 21 | 1007.5 |
| 20260503235018 | 28 | 66 | 6.4 | 19.3 | 0.00 | 0.03 | 0.00 | 22 | 1007.5 |
| 20260503234803 | 28 | 349 | 8.0 | 19.3 | 0.00 | 0.03 | 0.00 | 22 | 1007.7 |
| 20260503234002 | 28 | 17 | 9.7 | 20.9 | 0.00 | 0.03 | 0.00 | 21 | 1007.7 |
| 20260503233456 | 28 | 11 | 8.0 | 20.9 | 0.00 | 0.03 | 0.00 | 21 | 1007.8 |
| 20260503233208 | 28 | 30 | 6.4 | 19.3 | 0.00 | 0.03 | 0.00 | 22 | 1007.8 |
| 20260503232445 | 28 | 5 | 8.0 | 19.3 | 0.00 | 0.03 | 0.00 | 23 | 1007.8 |
| 20260503231938 | 28 | 334 | 8.0 | 19.3 | 0.00 | 0.03 | 0.00 | 22 | 1007.8 |
| 20260503231432 | 28 | 65 | 8.0 | 19.3 | 0.00 | 0.03 | 0.00 | 23 | 1007.9 |
| 20260503231213 | 28 | 301 | 8.0 | 19.3 | 0.00 | 0.03 | 0.00 | 23 | 1008.0 |
| 20260503230706 | 27 | 22 | 9.7 | 22.5 | 0.00 | 0.03 | 0.00 | 24 | 1008.1 |
| 20260503225914 | 27 | 67 | 9.7 | 22.5 | 0.00 | 0.03 | 0.00 | 25 | 1008.2 |
| 20260503225408 | 28 | 319 | 8.0 | 20.9 | 0.00 | 0.03 | 0.00 | 24 | 1008.1 |
| 20260503224902 | 27 | 319 | 8.0 | 20.9 | 0.00 | 0.03 | 0.00 | 24 | 1008.3 |
| 20260503224356 | 27 | 33 | 9.7 | 20.9 | 0.00 | 0.03 | 0.00 | 25 | 1008.4 |
| 20260503224121 | 27 | 355 | 9.7 | 22.5 | 0.00 | 0.03 | 0.00 | 25 | 1008.4 |
| 20260503223616 | 27 | 49 | 11.3 | 24.1 | 0.00 | 0.03 | 0.00 | 26 | 1008.5 |
| 20260503223114 | 27 | 355 | 11.3 | 24.1 | 0.00 | 0.03 | 0.00 | 25 | 1008.4 |
| 20260503222405 | 27 | 355 | 11.3 | 24.1 | 0.00 | 0.03 | 0.00 | 27 | 1008.7 |
| 20260503221858 | 27 | 321 | 11.3 | 24.1 | 0.00 | 0.03 | 0.00 | 26 | 1008.7 |
| 20260503221359 | 27 | 332 | 9.7 | 19.3 | 0.00 | 0.03 | 0.00 | 27 | 1008.7 |
| 20260503220859 | 27 | 330 | 9.7 | 25.7 | 0.00 | 0.03 | 0.00 | 28 | 1008.7 |
| 20260503220613 | 27 | 315 | 9.7 | 25.7 | 0.00 | 0.03 | 0.00 | 27 | 1009.0 |
| 20260503215858 | 27 | 355 | 8.0 | 22.5 | 0.00 | 0.03 | 0.00 | 28 | 1008.9 |
| 20260503215357 | 27 | 5 | 8.0 | 19.3 | 0.00 | 0.03 | 0.00 | 28 | 1009.0 |
| 20260503215111 | 27 | 73 | 6.4 | 16.1 | 0.00 | 0.03 | 0.00 | 27 | 1009.1 |
| 20260503214356 | 27 | 65 | 8.0 | 19.3 | 0.00 | 0.03 | 0.00 | 30 | 1009.1 |
| 20260503214111 | 27 | 0 | 9.7 | 19.3 | 0.00 | 0.03 | 0.00 | 29 | 1009.2 |
| 20260503213609 | 27 | 355 | 9.7 | 19.3 | 0.00 | 0.03 | 0.00 | 30 | 1009.2 |
| 20260503213355 | 27 | 355 | 9.7 | 19.3 | 0.00 | 0.03 | 0.00 | 30 | 1009.2 |
| 20260503212902 | 27 | 44 | 9.7 | 17.7 | 0.00 | 0.03 | 0.00 | 29 | 1009.3 |
| 20260503212346 | 27 | 281 | 9.7 | 20.9 | 0.00 | 0.03 | 0.00 | 30 | 1009.4 |
| 20260503211846 | 27 | 46 | 8.0 | 20.9 | 0.00 | 0.03 | 0.00 | 31 | 1009.4 |
| 20260503211346 | 27 | 327 | 6.4 | 19.3 | 0.00 | 0.03 | 0.00 | 31 | 1009.5 |
| 20260503210847 | 26 | 50 | 6.4 | 19.3 | 0.00 | 0.03 | 0.00 | 32 | 1009.6 |
| 20260503210346 | 26 | 338 | 8.0 | 19.3 | 0.00 | 0.03 | 0.00 | 33 | 1009.6 |
| 20260503205846 | 26 | 331 | 8.0 | 19.3 | 0.00 | 0.03 | 0.00 | 33 | 1009.7 |
| 20260503205346 | 26 | 23 | 6.4 | 17.7 | 0.00 | 0.03 | 0.00 | 33 | 1009.7 |
| 20260503204846 | 26 | 355 | 8.0 | 19.3 | 0.00 | 0.03 | 0.00 | 32 | 1009.8 |
| 20260503204344 | 26 | 315 | 8.0 | 19.3 | 0.00 | 0.03 | 0.00 | 32 | 1009.8 |
| 20260503203843 | 26 | 23 | 6.4 | 14.5 | 0.00 | 0.03 | 0.00 | 34 | 1009.8 |
| 20260503203342 | 26 | 355 | 6.4 | 16.1 | 0.00 | 0.03 | 0.00 | 34 | 1009.9 |
| 20260503202841 | 26 | 334 | 6.4 | 16.1 | 0.00 | 0.03 | 0.00 | 33 | 1009.9 |
| 20260503202340 | 26 | 348 | 4.8 | 16.1 | 0.00 | 0.03 | 0.00 | 34 | 1010.2 |
| 20260503201840 | 26 | 355 | 4.8 | 12.9 | 0.00 | 0.03 | 0.00 | 35 | 1010.2 |
| 20260503201340 | 25 | 75 | 4.8 | 12.9 | 0.00 | 0.03 | 0.00 | 34 | 1010.3 |
| 20260503200841 | 25 | 333 | 4.8 | 12.9 | 0.00 | 0.03 | 0.00 | 34 | 1010.4 |
| 20260503200601 | 25 | 26 | 6.4 | 16.1 | 0.00 | 0.03 | 0.00 | 35 | 1010.5 |
| 20260503195912 | 25 | 314 | 6.4 | 12.9 | 0.00 | 0.03 | 0.00 | 35 | 1010.6 |
| 20260503195907 | 25 | 331 | 6.4 | 16.1 | 0.00 | 0.03 | 0.00 | 35 | 1010.5 |
| 20260503194839 | 25 | 0 | 6.4 | 12.9 | 0.00 | 0.03 | 0.00 | 34 | 1010.7 |
| 20260503194340 | 25 | 80 | 4.8 | 12.9 | 0.00 | 0.03 | 0.00 | 36 | 1010.8 |
| 20260503193837 | 25 | 34 | 3.2 | 12.9 | 0.00 | 0.03 | 0.00 | 37 | 1010.7 |
| 20260503193337 | 24 | 85 | 4.8 | 9.7 | 0.00 | 0.03 | 0.00 | 36 | 1010.9 |
| 20260503193112 | 23 | 67 | 4.8 | 12.9 | 0.00 | 0.03 | 0.00 | 38 | 1010.9 |
| 20260503192348 | 23 | 314 | 3.2 | 11.3 | 0.00 | 0.03 | 0.00 | 37 | 1011.1 |
| 20260503192344 | 23 | 321 | 4.8 | 12.9 | 0.00 | 0.03 | 0.00 | 38 | 1011.0 |
| 20260503191317 | 23 | 0 | 3.2 | 9.7 | 0.00 | 0.03 | 0.00 | 39 | 1011.1 |
| 20260503190811 | 23 | 350 | 4.8 | 12.9 | 0.00 | 0.03 | 0.00 | 37 | 1011.3 |
| 20260503190306 | 23 | 331 | 4.8 | 12.9 | 0.00 | 0.03 | 0.00 | 40 | 1011.3 |
| 20260503185759 | 23 | 348 | 4.8 | 14.5 | 0.00 | 0.03 | 0.00 | 39 | 1011.5 |
| 20260503185519 | 22 | 350 | 4.8 | 14.5 | 0.00 | 0.03 | 0.00 | 40 | 1011.5 |
| 20260503185020 | 22 | 349 | 4.8 | 12.9 | 0.00 | 0.03 | 0.00 | 43 | 1011.6 |
| 20260503184241 | 22 | 5 | 3.2 | 12.9 | 0.00 | 0.03 | 0.00 | 41 | 1011.6 |
| 20260503183735 | 22 | 43 | 4.8 | 9.7 | 0.00 | 0.03 | 0.00 | 42 | 1011.7 |
| 20260503183232 | 22 | 5 | 4.8 | 12.9 | 0.00 | 0.03 | 0.00 | 42 | 1011.8 |
| 20260503182723 | 22 | 294 | 4.8 | 12.9 | 0.00 | 0.03 | 0.00 | 42 | 1011.9 |
| 20260503182217 | 22 | 23 | 3.2 | 9.7 | 0.00 | 0.03 | 0.00 | 43 | 1012.0 |
| 20260503181711 | 21 | 64 | 3.2 | 8.0 | 0.00 | 0.03 | 0.00 | 43 | 1012.0 |
| 20260503181205 | 21 | 76 | 3.2 | 9.7 | 0.00 | 0.03 | 0.00 | 43 | 1012.0 |
| 20260503180659 | 21 | 355 | 4.8 | 9.7 | 0.00 | 0.03 | 0.00 | 43 | 1012.2 |
| 20260503180154 | 21 | 330 | 4.8 | 12.9 | 0.00 | 0.03 | 0.00 | 43 | 1012.1 |
| 20260503175647 | 21 | 50 | 3.2 | 12.9 | 0.00 | 0.03 | 0.00 | 43 | 1012.1 |
| 20260503175142 | 21 | 53 | 1.6 | 8.0 | 0.00 | 0.03 | 0.00 | 45 | 1012.3 |
| 20260503174640 | 20 | 340 | 3.2 | 9.7 | 0.00 | 0.03 | 0.00 | 46 | 1012.2 |
| 20260503174129 | 20 | 10 | 3.2 | 9.7 | 0.00 | 0.03 | 0.00 | 45 | 1012.2 |
| 20260503173623 | 20 | 350 | 3.2 | 12.9 | 0.00 | 0.03 | 0.00 | 44 | 1012.2 |
| 20260503173118 | 20 | 344 | 4.8 | 12.9 | 0.00 | 0.03 | 0.00 | 46 | 1012.2 |
| 20260503172846 | 20 | 15 | 4.8 | 11.3 | 0.00 | 0.03 | 0.00 | 47 | 1012.2 |
| 20260503172340 | 20 | 27 | 3.2 | 11.3 | 0.00 | 0.03 | 0.00 | 47 | 1012.2 |
| 20260503171559 | 19 | 355 | 3.2 | 11.3 | 0.00 | 0.03 | 0.00 | 46 | 1012.2 |
| 20260503171327 | 19 | 345 | 3.2 | 9.7 | 0.00 | 0.03 | 0.00 | 49 | 1012.2 |
| 20260503170825 | 18 | 74 | 3.2 | 6.4 | 0.00 | 0.03 | 0.00 | 49 | 1012.2 |
| 20260503150930 | 12 | 142 | 3.2 | 6.4 | 0.00 | 0.03 | 0.00 | 69 | 1012.8 |
| 20260503150427 | 11 | 136 | 1.6 | 4.8 | 0.00 | 0.03 | 0.00 | 70 | 1012.8 |
| 20260503130745 | 7 | 173 | 0.0 | 0.0 | 0.00 | 0.03 | 0.00 | 84 | 1012.4 |
| 20260503130238 | 7 | 173 | 0.0 | 0.0 | 0.00 | 0.03 | 0.00 | 85 | 1012.3 |
| 20260503120127 | 7 | 173 | 0.0 | 0.0 | 0.00 | 0.03 | 0.00 | 83 | 1012.2 |
| 20260503110112 | 8 | 173 | 0.0 | 3.2 | 0.00 | 0.03 | 0.00 | 75 | 1012.3 |
| 20260503090107 | 11 | 181 | 3.2 | 9.7 | 0.00 | 0.03 | 0.00 | 70 | 1012.3 |
| 20260503081526 | 11 | 139 | 3.2 | 6.4 | 0.00 | 0.03 | 0.00 | 70 | 1012.1 |
| 20260503081019 | 11 | 124 | 3.2 | 9.7 | 0.00 | 0.03 | 0.00 | 69 | 1012.0 |
| 20260503080513 | 11 | 121 | 3.2 | 9.7 | 0.00 | 0.03 | 0.00 | 69 | 1012.1 |
| 20260503072931 | 12 | 146 | 0.0 | 4.8 | 0.00 | 0.03 | 0.00 | 67 | 1012.4 |
| 20260503072718 | 12 | 146 | 0.0 | 1.6 | 0.00 | 0.03 | 0.00 | 66 | 1012.4 |
| 20260503071917 | 12 | 146 | 1.6 | 6.4 | 0.00 | 0.03 | 0.00 | 66 | 1012.4 |
| 20260503071411 | 12 | 146 | 3.2 | 6.4 | 0.00 | 0.03 | 0.00 | 66 | 1012.4 |
| 20260503070905 | 12 | 163 | 3.2 | 6.4 | 0.00 | 0.03 | 0.00 | 66 | 1012.6 |
| 20260503070400 | 12 | 167 | 1.6 | 6.4 | 0.00 | 0.03 | 0.00 | 65 | 1012.4 |
| 20260503060307 | 14 | 186 | 4.8 | 8.0 | 0.00 | 0.03 | 0.03 | 59 | 1012.3 |
| 20260503054807 | 15 | 139 | 1.6 | 6.4 | 0.00 | 0.03 | 0.03 | 59 | 1012.2 |
| 20260503054311 | 15 | 170 | 1.6 | 6.4 | 0.00 | 0.03 | 0.03 | 59 | 1012.2 |
| 20260503053812 | 15 | 171 | 1.6 | 8.0 | 0.00 | 0.03 | 0.03 | 59 | 1012.2 |
| 20260503053307 | 15 | 171 | 3.2 | 8.0 | 0.00 | 0.03 | 0.03 | 58 | 1012.0 |
| 20260503052808 | 15 | 231 | 3.2 | 8.0 | 0.00 | 0.03 | 0.03 | 56 | 1011.9 |
| 20260503052308 | 15 | 292 | 3.2 | 8.0 | 0.00 | 0.03 | 0.03 | 56 | 1011.9 |
| 20260503051807 | 15 | 297 | 3.2 | 8.0 | 0.00 | 0.03 | 0.03 | 55 | 1011.8 |
| 20260503051308 | 15 | 315 | 3.2 | 9.7 | 0.00 | 0.03 | 0.03 | 56 | 1011.8 |
| 20260503050808 | 15 | 287 | 4.8 | 12.9 | 0.00 | 0.03 | 0.03 | 56 | 1011.9 |
| 20260503050311 | 15 | 269 | 4.8 | 12.9 | 0.00 | 0.03 | 0.03 | 56 | 1011.9 |
| 20260503050058 | 15 | 273 | 4.8 | 12.9 | 0.00 | 0.03 | 0.03 | 56 | 1011.8 |
| 20260503045305 | 15 | 298 | 6.4 | 12.9 | 0.00 | 0.03 | 0.03 | 57 | 1011.8 |
| 20260503045043 | 15 | 257 | 4.8 | 11.3 | 0.00 | 0.03 | 0.03 | 56 | 1011.8 |
| 20260503044259 | 15 | 287 | 4.8 | 9.7 | 0.00 | 0.03 | 0.03 | 57 | 1011.8 |
| 20260503044027 | 15 | 277 | 4.8 | 11.3 | 0.00 | 0.03 | 0.03 | 57 | 1011.7 |
| 20260503043258 | 15 | 271 | 4.8 | 12.9 | 0.00 | 0.03 | 0.03 | 58 | 1011.6 |
| 20260503042757 | 15 | 277 | 6.4 | 12.9 | 0.00 | 0.03 | 0.03 | 59 | 1011.8 |